Year,Month,Day,Hour,Minute,Value (Times are PST for insolation in W/m^2)
2016,11,09,00,00,0.00
2016,11,09,00,01,0.00
2016,11,09,00,02,0.00
2016,11,09,00,03,0.00
2016,11,09,00,04,0.00
2016,11,09,00,05,0.00
2016,11,09,00,06,0.00
2016,11,09,00,07,0.00
2016,11,09,00,08,0.00
2016,11,09,00,09,0.00
2016,11,09,00,10,0.00
2016,11,09,00,11,0.00
2016,11,09,00,12,0.00
2016,11,09,00,13,0.00
2016,11,09,00,14,0.00
2016,11,09,00,15,0.00
2016,11,09,00,16,0.00
2016,11,09,00,17,0.00
2016,11,09,00,18,0.00
2016,11,09,00,19,0.00
2016,11,09,00,20,0.00
2016,11,09,00,21,0.00
2016,11,09,00,22,0.00
2016,11,09,00,23,0.00
2016,11,09,00,24,0.00
2016,11,09,00,25,0.00
2016,11,09,00,26,0.00
2016,11,09,00,27,0.00
2016,11,09,00,28,0.00
2016,11,09,00,29,0.00
2016,11,09,00,30,0.00
2016,11,09,00,31,0.00
2016,11,09,00,32,0.00
2016,11,09,00,33,0.00
2016,11,09,00,34,0.00
2016,11,09,00,35,0.00
2016,11,09,00,36,0.00
2016,11,09,00,37,0.00
2016,11,09,00,38,0.00
2016,11,09,00,39,0.00
2016,11,09,00,40,0.00
2016,11,09,00,41,0.00
2016,11,09,00,42,0.00
2016,11,09,00,43,0.00
2016,11,09,00,44,0.00
2016,11,09,00,45,0.00
2016,11,09,00,46,0.00
2016,11,09,00,47,0.00
2016,11,09,00,48,0.00
2016,11,09,00,49,0.00
2016,11,09,00,50,0.00
2016,11,09,00,51,0.00
2016,11,09,00,52,0.00
2016,11,09,00,53,0.00
2016,11,09,00,54,0.00
2016,11,09,00,55,0.00
2016,11,09,00,56,0.00
2016,11,09,00,57,0.00
2016,11,09,00,58,0.00
2016,11,09,00,59,0.00
2016,11,09,01,00,0.00
2016,11,09,01,01,0.00
2016,11,09,01,02,0.00
2016,11,09,01,03,0.00
2016,11,09,01,04,0.00
2016,11,09,01,05,0.00
2016,11,09,01,06,0.00
2016,11,09,01,07,0.00
2016,11,09,01,08,0.00
2016,11,09,01,09,0.00
2016,11,09,01,10,0.00
2016,11,09,01,11,0.00
2016,11,09,01,12,0.00
2016,11,09,01,13,0.00
2016,11,09,01,14,0.00
2016,11,09,01,15,0.00
2016,11,09,01,16,0.00
2016,11,09,01,17,0.00
2016,11,09,01,18,0.00
2016,11,09,01,19,0.00
2016,11,09,01,20,0.00
2016,11,09,01,21,0.00
2016,11,09,01,22,0.00
2016,11,09,01,23,0.00
2016,11,09,01,24,0.00
2016,11,09,01,25,0.00
2016,11,09,01,26,0.00
2016,11,09,01,27,0.00
2016,11,09,01,28,0.00
2016,11,09,01,29,0.00
2016,11,09,01,30,0.00
2016,11,09,01,31,0.00
2016,11,09,01,32,0.00
2016,11,09,01,33,0.00
2016,11,09,01,34,0.00
2016,11,09,01,35,0.00
2016,11,09,01,36,0.00
2016,11,09,01,37,0.00
2016,11,09,01,38,0.00
2016,11,09,01,39,0.00
2016,11,09,01,40,0.00
2016,11,09,01,41,0.00
2016,11,09,01,42,0.00
2016,11,09,01,43,0.00
2016,11,09,01,44,0.00
2016,11,09,01,45,0.00
2016,11,09,01,46,0.00
2016,11,09,01,47,0.00
2016,11,09,01,48,0.00
2016,11,09,01,49,0.00
2016,11,09,01,50,0.00
2016,11,09,01,51,0.00
2016,11,09,01,52,0.00
2016,11,09,01,53,0.00
2016,11,09,01,54,0.00
2016,11,09,01,55,0.00
2016,11,09,01,56,0.00
2016,11,09,01,57,0.00
2016,11,09,01,58,0.00
2016,11,09,01,59,0.00
2016,11,09,02,00,0.00
2016,11,09,02,01,0.00
2016,11,09,02,02,0.00
2016,11,09,02,03,0.00
2016,11,09,02,04,0.00
2016,11,09,02,05,0.00
2016,11,09,02,06,0.00
2016,11,09,02,07,0.00
2016,11,09,02,08,0.00
2016,11,09,02,09,0.00
2016,11,09,02,10,0.00
2016,11,09,02,11,0.00
2016,11,09,02,12,0.00
2016,11,09,02,13,0.00
2016,11,09,02,14,0.00
2016,11,09,02,15,0.00
2016,11,09,02,16,0.00
2016,11,09,02,17,0.00
2016,11,09,02,18,0.00
2016,11,09,02,19,0.00
2016,11,09,02,20,0.00
2016,11,09,02,21,0.00
2016,11,09,02,22,0.00
2016,11,09,02,23,0.00
2016,11,09,02,24,0.00
2016,11,09,02,25,0.00
2016,11,09,02,26,0.00
2016,11,09,02,27,0.00
2016,11,09,02,28,0.00
2016,11,09,02,29,0.00
2016,11,09,02,30,0.00
2016,11,09,02,31,0.00
2016,11,09,02,32,0.00
2016,11,09,02,33,0.00
2016,11,09,02,34,0.00
2016,11,09,02,35,0.00
2016,11,09,02,36,0.00
2016,11,09,02,37,0.00
2016,11,09,02,38,0.00
2016,11,09,02,39,0.00
2016,11,09,02,40,0.00
2016,11,09,02,41,0.00
2016,11,09,02,42,0.00
2016,11,09,02,43,0.00
2016,11,09,02,44,0.00
2016,11,09,02,45,0.00
2016,11,09,02,46,0.00
2016,11,09,02,47,0.00
2016,11,09,02,48,0.00
2016,11,09,02,49,0.00
2016,11,09,02,50,0.00
2016,11,09,02,51,0.00
2016,11,09,02,52,0.00
2016,11,09,02,53,0.00
2016,11,09,02,54,0.00
2016,11,09,02,55,0.00
2016,11,09,02,56,0.00
2016,11,09,02,57,0.00
2016,11,09,02,58,0.00
2016,11,09,02,59,0.00
2016,11,09,03,00,0.00
2016,11,09,03,01,0.00
2016,11,09,03,02,0.00
2016,11,09,03,03,0.00
2016,11,09,03,04,0.00
2016,11,09,03,05,0.00
2016,11,09,03,06,0.00
2016,11,09,03,07,0.00
2016,11,09,03,08,0.00
2016,11,09,03,09,0.00
2016,11,09,03,10,0.00
2016,11,09,03,11,0.00
2016,11,09,03,12,0.00
2016,11,09,03,13,0.00
2016,11,09,03,14,0.00
2016,11,09,03,15,0.00
2016,11,09,03,16,0.00
2016,11,09,03,17,0.00
2016,11,09,03,18,0.00
2016,11,09,03,19,0.00
2016,11,09,03,20,0.00
2016,11,09,03,21,0.00
2016,11,09,03,22,0.00
2016,11,09,03,23,0.00
2016,11,09,03,24,0.00
2016,11,09,03,25,0.00
2016,11,09,03,26,0.00
2016,11,09,03,27,0.00
2016,11,09,03,28,0.00
2016,11,09,03,29,0.00
2016,11,09,03,30,0.00
2016,11,09,03,31,0.00
2016,11,09,03,32,0.00
2016,11,09,03,33,0.00
2016,11,09,03,34,0.00
2016,11,09,03,35,0.00
2016,11,09,03,36,0.00
2016,11,09,03,37,0.00
2016,11,09,03,38,0.00
2016,11,09,03,39,0.00
2016,11,09,03,40,0.00
2016,11,09,03,41,0.00
2016,11,09,03,42,0.00
2016,11,09,03,43,0.00
2016,11,09,03,44,0.00
2016,11,09,03,45,0.00
2016,11,09,03,46,0.00
2016,11,09,03,47,0.00
2016,11,09,03,48,0.00
2016,11,09,03,49,0.00
2016,11,09,03,50,0.00
2016,11,09,03,51,0.00
2016,11,09,03,52,0.00
2016,11,09,03,53,0.00
2016,11,09,03,54,0.00
2016,11,09,03,55,0.00
2016,11,09,03,56,0.00
2016,11,09,03,57,0.00
2016,11,09,03,58,0.00
2016,11,09,03,59,0.00
2016,11,09,04,00,0.00
2016,11,09,04,01,0.00
2016,11,09,04,02,0.00
2016,11,09,04,03,0.00
2016,11,09,04,04,0.00
2016,11,09,04,05,0.00
2016,11,09,04,06,0.00
2016,11,09,04,07,0.00
2016,11,09,04,08,0.00
2016,11,09,04,09,0.00
2016,11,09,04,10,0.00
2016,11,09,04,11,0.00
2016,11,09,04,12,0.00
2016,11,09,04,13,0.00
2016,11,09,04,14,0.00
2016,11,09,04,15,0.00
2016,11,09,04,16,0.00
2016,11,09,04,17,0.00
2016,11,09,04,18,0.00
2016,11,09,04,19,0.00
2016,11,09,04,20,0.00
2016,11,09,04,21,0.00
2016,11,09,04,22,0.00
2016,11,09,04,23,0.00
2016,11,09,04,24,0.00
2016,11,09,04,25,0.00
2016,11,09,04,26,0.00
2016,11,09,04,27,0.00
2016,11,09,04,28,0.00
2016,11,09,04,29,0.00
2016,11,09,04,30,0.00
2016,11,09,04,31,0.00
2016,11,09,04,32,0.00
2016,11,09,04,33,0.00
2016,11,09,04,34,0.00
2016,11,09,04,35,0.00
2016,11,09,04,36,0.00
2016,11,09,04,37,0.00
2016,11,09,04,38,0.00
2016,11,09,04,39,0.00
2016,11,09,04,40,0.00
2016,11,09,04,41,0.00
2016,11,09,04,42,0.00
2016,11,09,04,43,0.00
2016,11,09,04,44,0.00
2016,11,09,04,45,0.00
2016,11,09,04,46,0.00
2016,11,09,04,47,0.00
2016,11,09,04,48,0.00
2016,11,09,04,49,0.00
2016,11,09,04,50,0.00
2016,11,09,04,51,0.00
2016,11,09,04,52,0.00
2016,11,09,04,53,0.00
2016,11,09,04,54,0.00
2016,11,09,04,55,0.00
2016,11,09,04,56,0.00
2016,11,09,04,57,0.00
2016,11,09,04,58,0.00
2016,11,09,04,59,0.00
2016,11,09,05,00,0.00
2016,11,09,05,01,0.00
2016,11,09,05,02,0.00
2016,11,09,05,03,0.00
2016,11,09,05,04,0.00
2016,11,09,05,05,0.00
2016,11,09,05,06,0.00
2016,11,09,05,07,0.00
2016,11,09,05,08,0.00
2016,11,09,05,09,0.00
2016,11,09,05,10,0.00
2016,11,09,05,11,0.00
2016,11,09,05,12,0.00
2016,11,09,05,13,0.00
2016,11,09,05,14,0.00
2016,11,09,05,15,0.00
2016,11,09,05,16,0.00
2016,11,09,05,17,0.00
2016,11,09,05,18,0.00
2016,11,09,05,19,0.00
2016,11,09,05,20,0.00
2016,11,09,05,21,0.00
2016,11,09,05,22,0.00
2016,11,09,05,23,0.00
2016,11,09,05,24,0.00
2016,11,09,05,25,0.00
2016,11,09,05,26,0.00
2016,11,09,05,27,0.00
2016,11,09,05,28,0.00
2016,11,09,05,29,0.00
2016,11,09,05,30,0.00
2016,11,09,05,31,0.00
2016,11,09,05,32,0.00
2016,11,09,05,33,0.00
2016,11,09,05,34,0.00
2016,11,09,05,35,0.00
2016,11,09,05,36,0.00
2016,11,09,05,37,0.00
2016,11,09,05,38,0.00
2016,11,09,05,39,0.00
2016,11,09,05,40,0.00
2016,11,09,05,41,0.00
2016,11,09,05,42,0.00
2016,11,09,05,43,0.00
2016,11,09,05,44,0.00
2016,11,09,05,45,0.00
2016,11,09,05,46,0.00
2016,11,09,05,47,0.00
2016,11,09,05,48,0.00
2016,11,09,05,49,0.00
2016,11,09,05,50,0.00
2016,11,09,05,51,0.00
2016,11,09,05,52,0.00
2016,11,09,05,53,0.00
2016,11,09,05,54,0.00
2016,11,09,05,55,0.00
2016,11,09,05,56,0.00
2016,11,09,05,57,0.00
2016,11,09,05,58,0.00
2016,11,09,05,59,0.00
2016,11,09,06,00,0.00
2016,11,09,06,01,0.00
2016,11,09,06,02,0.00
2016,11,09,06,03,0.00
2016,11,09,06,04,0.00
2016,11,09,06,05,0.00
2016,11,09,06,06,0.00
2016,11,09,06,07,0.00
2016,11,09,06,08,0.00
2016,11,09,06,09,0.00
2016,11,09,06,10,0.00
2016,11,09,06,11,0.00
2016,11,09,06,12,0.00
2016,11,09,06,13,0.00
2016,11,09,06,14,0.00
2016,11,09,06,15,0.00
2016,11,09,06,16,0.00
2016,11,09,06,17,0.00
2016,11,09,06,18,0.00
2016,11,09,06,19,0.00
2016,11,09,06,20,0.00
2016,11,09,06,21,0.00
2016,11,09,06,22,0.00
2016,11,09,06,23,0.00
2016,11,09,06,24,0.00
2016,11,09,06,25,0.00
2016,11,09,06,26,0.00
2016,11,09,06,27,0.00
2016,11,09,06,28,0.00
2016,11,09,06,29,0.00
2016,11,09,06,30,0.00
2016,11,09,06,31,0.00
2016,11,09,06,32,0.00
2016,11,09,06,33,0.00
2016,11,09,06,34,0.00
2016,11,09,06,35,0.00
2016,11,09,06,36,0.00
2016,11,09,06,37,0.00
2016,11,09,06,38,0.00
2016,11,09,06,39,0.00
2016,11,09,06,40,0.00
2016,11,09,06,41,0.00
2016,11,09,06,42,0.00
2016,11,09,06,43,0.00
2016,11,09,06,44,0.00
2016,11,09,06,45,0.00
2016,11,09,06,46,0.00
2016,11,09,06,47,0.00
2016,11,09,06,48,0.00
2016,11,09,06,49,0.00
2016,11,09,06,50,0.00
2016,11,09,06,51,0.00
2016,11,09,06,52,0.00
2016,11,09,06,53,0.00
2016,11,09,06,54,0.00
2016,11,09,06,55,0.00
2016,11,09,06,56,0.00
2016,11,09,06,57,0.00
2016,11,09,06,58,0.00
2016,11,09,06,59,0.00
2016,11,09,07,00,0.00
2016,11,09,07,01,0.00
2016,11,09,07,02,0.00
2016,11,09,07,03,0.00
2016,11,09,07,04,0.00
2016,11,09,07,05,0.00
2016,11,09,07,06,0.00
2016,11,09,07,07,0.00
2016,11,09,07,08,0.00
2016,11,09,07,09,0.00
2016,11,09,07,10,0.00
2016,11,09,07,11,0.00
2016,11,09,07,12,0.00
2016,11,09,07,13,0.00
2016,11,09,07,14,0.00
2016,11,09,07,15,0.00
2016,11,09,07,16,0.00
2016,11,09,07,17,0.00
2016,11,09,07,18,0.00
2016,11,09,07,19,0.00
2016,11,09,07,20,0.00
2016,11,09,07,21,0.00
2016,11,09,07,22,0.00
2016,11,09,07,23,0.00
2016,11,09,07,24,0.00
2016,11,09,07,25,0.00
2016,11,09,07,26,0.00
2016,11,09,07,27,0.00
2016,11,09,07,28,0.00
2016,11,09,07,29,0.00
2016,11,09,07,30,0.00
2016,11,09,07,31,0.00
2016,11,09,07,32,0.00
2016,11,09,07,33,0.00
2016,11,09,07,34,0.00
2016,11,09,07,35,0.50
2016,11,09,07,36,5.00
2016,11,09,07,37,5.00
2016,11,09,07,38,5.00
2016,11,09,07,39,5.00
2016,11,09,07,40,5.00
2016,11,09,07,41,5.00
2016,11,09,07,42,6.10
2016,11,09,07,43,7.00
2016,11,09,07,44,7.00
2016,11,09,07,45,8.40
2016,11,09,07,46,9.00
2016,11,09,07,47,9.00
2016,11,09,07,48,10.80
2016,11,09,07,49,11.00
2016,11,09,07,50,12.00
2016,11,09,07,51,12.00
2016,11,09,07,52,11.80
2016,11,09,07,53,11.00
2016,11,09,07,54,11.00
2016,11,09,07,55,11.00
2016,11,09,07,56,11.00
2016,11,09,07,57,11.00
2016,11,09,07,58,11.00
2016,11,09,07,59,11.70
2016,11,09,08,00,14.90
2016,11,09,08,01,17.50
2016,11,09,08,02,18.00
2016,11,09,08,03,18.00
2016,11,09,08,04,17.90
2016,11,09,08,05,16.00
2016,11,09,08,06,16.00
2016,11,09,08,07,16.00
2016,11,09,08,08,16.00
2016,11,09,08,09,16.00
2016,11,09,08,10,15.10
2016,11,09,08,11,15.00
2016,11,09,08,12,17.60
2016,11,09,08,13,21.40
2016,11,09,08,14,23.00
2016,11,09,08,15,23.00
2016,11,09,08,16,23.00
2016,11,09,08,17,23.00
2016,11,09,08,18,23.00
2016,11,09,08,19,22.50
2016,11,09,08,20,12.00
2016,11,09,08,21,12.00
2016,11,09,08,22,12.50
2016,11,09,08,23,14.00
2016,11,09,08,24,14.70
2016,11,09,08,25,17.30
2016,11,09,08,26,17.60
2016,11,09,08,27,15.00
2016,11,09,08,28,12.90
2016,11,09,08,29,11.30
2016,11,09,08,30,11.70
2016,11,09,08,31,12.00
2016,11,09,08,32,12.00
2016,11,09,08,33,11.10
2016,11,09,08,34,11.00
2016,11,09,08,35,11.10
2016,11,09,08,36,12.00
2016,11,09,08,37,11.80
2016,11,09,08,38,10.40
2016,11,09,08,39,9.70
2016,11,09,08,40,11.40
2016,11,09,08,41,12.00
2016,11,09,08,42,13.00
2016,11,09,08,43,12.90
2016,11,09,08,44,11.40
2016,11,09,08,45,13.20
2016,11,09,08,46,17.10
2016,11,09,08,47,18.00
2016,11,09,08,48,20.70
2016,11,09,08,49,21.10
2016,11,09,08,50,23.00
2016,11,09,08,51,23.00
2016,11,09,08,52,23.00
2016,11,09,08,53,22.40
2016,11,09,08,54,21.00
2016,11,09,08,55,21.00
2016,11,09,08,56,21.00
2016,11,09,08,57,21.00
2016,11,09,08,58,22.20
2016,11,09,08,59,23.00
2016,11,09,09,00,24.40
2016,11,09,09,01,25.80
2016,11,09,09,02,27.70
2016,11,09,09,03,29.80
2016,11,09,09,04,31.90
2016,11,09,09,05,32.00
2016,11,09,09,06,32.00
2016,11,09,09,07,32.20
2016,11,09,09,08,33.00
2016,11,09,09,09,34.30
2016,11,09,09,10,37.80
2016,11,09,09,11,39.50
2016,11,09,09,12,40.00
2016,11,09,09,13,40.00
2016,11,09,09,14,40.00
2016,11,09,09,15,39.30
2016,11,09,09,16,39.00
2016,11,09,09,17,39.00
2016,11,09,09,18,39.00
2016,11,09,09,19,39.00
2016,11,09,09,20,39.00
2016,11,09,09,21,39.00
2016,11,09,09,22,38.50
2016,11,09,09,23,37.00
2016,11,09,09,24,36.30
2016,11,09,09,25,35.00
2016,11,09,09,26,36.00
2016,11,09,09,27,38.10
2016,11,09,09,28,39.00
2016,11,09,09,29,39.70
2016,11,09,09,30,41.40
2016,11,09,09,31,43.60
2016,11,09,09,32,45.70
2016,11,09,09,33,46.90
2016,11,09,09,34,48.90
2016,11,09,09,35,49.00
2016,11,09,09,36,49.00
2016,11,09,09,37,49.00
2016,11,09,09,38,49.60
2016,11,09,09,39,52.00
2016,11,09,09,40,54.80
2016,11,09,09,41,57.90
2016,11,09,09,42,61.60
2016,11,09,09,43,64.10
2016,11,09,09,44,66.30
2016,11,09,09,45,67.00
2016,11,09,09,46,67.00
2016,11,09,09,47,68.70
2016,11,09,09,48,69.00
2016,11,09,09,49,70.00
2016,11,09,09,50,74.20
2016,11,09,09,51,76.20
2016,11,09,09,52,77.50
2016,11,09,09,53,79.00
2016,11,09,09,54,79.00
2016,11,09,09,55,79.00
2016,11,09,09,56,79.00
2016,11,09,09,57,80.00
2016,11,09,09,58,82.10
2016,11,09,09,59,83.00
2016,11,09,10,00,83.00
2016,11,09,10,01,83.00
2016,11,09,10,02,83.00
2016,11,09,10,03,83.00
2016,11,09,10,04,83.00
2016,11,09,10,05,83.00
2016,11,09,10,06,83.00
2016,11,09,10,07,83.00
2016,11,09,10,08,83.30
2016,11,09,10,09,84.70
2016,11,09,10,10,87.70
2016,11,09,10,11,91.40
2016,11,09,10,12,95.60
2016,11,09,10,13,99.20
2016,11,09,10,14,100.00
2016,11,09,10,15,100.00
2016,11,09,10,16,98.50
2016,11,09,10,17,97.10
2016,11,09,10,18,95.20
2016,11,09,10,19,91.00
2016,11,09,10,20,85.80
2016,11,09,10,21,83.90
2016,11,09,10,22,82.60
2016,11,09,10,23,81.50
2016,11,09,10,24,83.30
2016,11,09,10,25,86.30
2016,11,09,10,26,93.30
2016,11,09,10,27,97.50
2016,11,09,10,28,97.40
2016,11,09,10,29,95.70
2016,11,09,10,30,93.60
2016,11,09,10,31,93.00
2016,11,09,10,32,94.70
2016,11,09,10,33,97.70
2016,11,09,10,34,101.70
2016,11,09,10,35,104.00
2016,11,09,10,36,103.70
2016,11,09,10,37,102.00
2016,11,09,10,38,101.40
2016,11,09,10,39,100.00
2016,11,09,10,40,99.20
2016,11,09,10,41,97.50
2016,11,09,10,42,96.00
2016,11,09,10,43,93.80
2016,11,09,10,44,91.00
2016,11,09,10,45,90.00
2016,11,09,10,46,90.00
2016,11,09,10,47,86.60
2016,11,09,10,48,81.50
2016,11,09,10,49,76.00
2016,11,09,10,50,69.70
2016,11,09,10,51,66.40
2016,11,09,10,52,63.00
2016,11,09,10,53,62.70
2016,11,09,10,54,63.00
2016,11,09,10,55,66.50
2016,11,09,10,56,69.50
2016,11,09,10,57,72.10
2016,11,09,10,58,75.70
2016,11,09,10,59,78.30
2016,11,09,11,00,81.90
2016,11,09,11,01,83.80
2016,11,09,11,02,87.30
2016,11,09,11,03,90.70
2016,11,09,11,04,94.80
2016,11,09,11,05,97.10
2016,11,09,11,06,98.60
2016,11,09,11,07,102.60
2016,11,09,11,08,106.10
2016,11,09,11,09,109.60
2016,11,09,11,10,111.80
2016,11,09,11,11,114.40
2016,11,09,11,12,118.60
2016,11,09,11,13,125.00
2016,11,09,11,14,130.70
2016,11,09,11,15,132.00
2016,11,09,11,16,132.00
2016,11,09,11,17,132.00
2016,11,09,11,18,130.20
2016,11,09,11,19,127.00
2016,11,09,11,20,125.20
2016,11,09,11,21,127.00
2016,11,09,11,22,127.70
2016,11,09,11,23,131.10
2016,11,09,11,24,135.00
2016,11,09,11,25,137.00
2016,11,09,11,26,137.00
2016,11,09,11,27,136.00
2016,11,09,11,28,134.40
2016,11,09,11,29,131.30
2016,11,09,11,30,130.00
2016,11,09,11,31,131.50
2016,11,09,11,32,134.50
2016,11,09,11,33,138.60
2016,11,09,11,34,140.90
2016,11,09,11,35,141.50
2016,11,09,11,36,147.00
2016,11,09,11,37,154.30
2016,11,09,11,38,160.90
2016,11,09,11,39,163.00
2016,11,09,11,40,162.60
2016,11,09,11,41,158.70
2016,11,09,11,42,150.30
2016,11,09,11,43,141.90
2016,11,09,11,44,133.00
2016,11,09,11,45,123.60
2016,11,09,11,46,118.70
2016,11,09,11,47,116.30
2016,11,09,11,48,119.60
2016,11,09,11,49,119.70
2016,11,09,11,50,113.70
2016,11,09,11,51,111.00
2016,11,09,11,52,112.10
2016,11,09,11,53,121.40
2016,11,09,11,54,146.90
2016,11,09,11,55,174.70
2016,11,09,11,56,182.00
2016,11,09,11,57,188.30
2016,11,09,11,58,251.60
2016,11,09,11,59,353.30
2016,11,09,12,00,398.00
2016,11,09,12,01,400.10
2016,11,09,12,02,402.40
2016,11,09,12,03,410.20
2016,11,09,12,04,415.50
2016,11,09,12,05,394.90
2016,11,09,12,06,426.70
2016,11,09,12,07,322.30
2016,11,09,12,08,257.00
2016,11,09,12,09,269.00
2016,11,09,12,10,218.90
2016,11,09,12,11,216.10
2016,11,09,12,12,244.60
2016,11,09,12,13,275.30
2016,11,09,12,14,245.00
2016,11,09,12,15,235.60
2016,11,09,12,16,260.30
2016,11,09,12,17,251.50
2016,11,09,12,18,320.90
2016,11,09,12,19,338.50
2016,11,09,12,20,531.40
2016,11,09,12,21,554.00
2016,11,09,12,22,487.20
2016,11,09,12,23,257.10
2016,11,09,12,24,250.00
2016,11,09,12,25,245.50
2016,11,09,12,26,233.30
2016,11,09,12,27,224.90
2016,11,09,12,28,224.20
2016,11,09,12,29,228.30
2016,11,09,12,30,234.30
2016,11,09,12,31,236.00
2016,11,09,12,32,236.00
2016,11,09,12,33,236.00
2016,11,09,12,34,231.40
2016,11,09,12,35,212.90
2016,11,09,12,36,201.00
2016,11,09,12,37,194.30
2016,11,09,12,38,191.40
2016,11,09,12,39,190.70
2016,11,09,12,40,193.20
2016,11,09,12,41,200.20
2016,11,09,12,42,216.00
2016,11,09,12,43,238.60
2016,11,09,12,44,240.00
2016,11,09,12,45,233.10
2016,11,09,12,46,226.70
2016,11,09,12,47,213.00
2016,11,09,12,48,201.00
2016,11,09,12,49,195.20
2016,11,09,12,50,195.40
2016,11,09,12,51,200.70
2016,11,09,12,52,214.20
2016,11,09,12,53,235.00
2016,11,09,12,54,259.30
2016,11,09,12,55,251.90
2016,11,09,12,56,236.80
2016,11,09,12,57,221.50
2016,11,09,12,58,202.40
2016,11,09,12,59,189.00
2016,11,09,13,00,181.00
2016,11,09,13,01,175.10
2016,11,09,13,02,172.30
2016,11,09,13,03,172.00
2016,11,09,13,04,171.00
2016,11,09,13,05,168.80
2016,11,09,13,06,166.40
2016,11,09,13,07,163.00
2016,11,09,13,08,164.10
2016,11,09,13,09,166.30
2016,11,09,13,10,166.60
2016,11,09,13,11,169.00
2016,11,09,13,12,169.00
2016,11,09,13,13,169.00
2016,11,09,13,14,169.00
2016,11,09,13,15,170.40
2016,11,09,13,16,173.40
2016,11,09,13,17,174.00
2016,11,09,13,18,237.30
2016,11,09,13,19,252.00
2016,11,09,13,20,415.50
2016,11,09,13,21,379.30
2016,11,09,13,22,417.60
2016,11,09,13,23,404.00
2016,11,09,13,24,367.00
2016,11,09,13,25,373.00
2016,11,09,13,26,373.00
2016,11,09,13,27,373.00
2016,11,09,13,28,387.70
2016,11,09,13,29,399.00
2016,11,09,13,30,395.40
2016,11,09,13,31,373.40
2016,11,09,13,32,367.00
2016,11,09,13,33,367.00
2016,11,09,13,34,342.20
2016,11,09,13,35,376.50
2016,11,09,13,36,323.70
2016,11,09,13,37,246.60
2016,11,09,13,38,181.00
2016,11,09,13,39,181.00
2016,11,09,13,40,168.40
2016,11,09,13,41,158.50
2016,11,09,13,42,171.00
2016,11,09,13,43,171.00
2016,11,09,13,44,299.70
2016,11,09,13,45,332.60
2016,11,09,13,46,320.00
2016,11,09,13,47,320.00
2016,11,09,13,48,343.50
2016,11,09,13,49,336.50
2016,11,09,13,50,378.00
2016,11,09,13,51,351.60
2016,11,09,13,52,202.00
2016,11,09,13,53,199.00
2016,11,09,13,54,182.30
2016,11,09,13,55,159.20
2016,11,09,13,56,148.00
2016,11,09,13,57,148.00
2016,11,09,13,58,289.70
2016,11,09,13,59,396.70
2016,11,09,14,00,396.30
2016,11,09,14,01,391.40
2016,11,09,14,02,381.40
2016,11,09,14,03,373.70
2016,11,09,14,04,364.10
2016,11,09,14,05,355.70
2016,11,09,14,06,340.70
2016,11,09,14,07,323.80
2016,11,09,14,08,309.60
2016,11,09,14,09,299.00
2016,11,09,14,10,295.00
2016,11,09,14,11,293.60
2016,11,09,14,12,289.40
2016,11,09,14,13,284.70
2016,11,09,14,14,280.30
2016,11,09,14,15,276.90
2016,11,09,14,16,274.50
2016,11,09,14,17,272.30
2016,11,09,14,18,271.10
2016,11,09,14,19,268.90
2016,11,09,14,20,264.90
2016,11,09,14,21,263.70
2016,11,09,14,22,261.50
2016,11,09,14,23,259.40
2016,11,09,14,24,257.70
2016,11,09,14,25,255.40
2016,11,09,14,26,252.00
2016,11,09,14,27,250.50
2016,11,09,14,28,248.90
2016,11,09,14,29,246.70
2016,11,09,14,30,244.60
2016,11,09,14,31,243.20
2016,11,09,14,32,241.40
2016,11,09,14,33,239.20
2016,11,09,14,34,237.10
2016,11,09,14,35,236.70
2016,11,09,14,36,233.40
2016,11,09,14,37,229.80
2016,11,09,14,38,228.40
2016,11,09,14,39,226.30
2016,11,09,14,40,224.20
2016,11,09,14,41,221.60
2016,11,09,14,42,219.00
2016,11,09,14,43,216.90
2016,11,09,14,44,214.70
2016,11,09,14,45,211.90
2016,11,09,14,46,209.50
2016,11,09,14,47,207.30
2016,11,09,14,48,206.10
2016,11,09,14,49,204.00
2016,11,09,14,50,201.70
2016,11,09,14,51,198.70
2016,11,09,14,52,196.50
2016,11,09,14,53,194.40
2016,11,09,14,54,192.70
2016,11,09,14,55,190.40
2016,11,09,14,56,187.00
2016,11,09,14,57,185.50
2016,11,09,14,58,182.70
2016,11,09,14,59,172.10
2016,11,09,15,00,159.10
2016,11,09,15,01,152.10
2016,11,09,15,02,149.30
2016,11,09,15,03,152.60
2016,11,09,15,04,162.50
2016,11,09,15,05,166.60
2016,11,09,15,06,162.90
2016,11,09,15,07,161.20
2016,11,09,15,08,155.40
2016,11,09,15,09,147.30
2016,11,09,15,10,143.20
2016,11,09,15,11,141.50
2016,11,09,15,12,141.50
2016,11,09,15,13,144.20
2016,11,09,15,14,143.50
2016,11,09,15,15,141.30
2016,11,09,15,16,139.50
2016,11,09,15,17,135.80
2016,11,09,15,18,134.10
2016,11,09,15,19,132.10
2016,11,09,15,20,127.90
2016,11,09,15,21,126.70
2016,11,09,15,22,124.10
2016,11,09,15,23,120.70
2016,11,09,15,24,119.40
2016,11,09,15,25,116.40
2016,11,09,15,26,107.00
2016,11,09,15,27,102.60
2016,11,09,15,28,107.30
2016,11,09,15,29,106.50
2016,11,09,15,30,97.90
2016,11,09,15,31,85.90
2016,11,09,15,32,58.10
2016,11,09,15,33,35.10
2016,11,09,15,34,58.70
2016,11,09,15,35,88.50
2016,11,09,15,36,92.60
2016,11,09,15,37,89.60
2016,11,09,15,38,87.50
2016,11,09,15,39,85.30
2016,11,09,15,40,83.60
2016,11,09,15,41,81.10
2016,11,09,15,42,78.00
2016,11,09,15,43,76.40
2016,11,09,15,44,74.70
2016,11,09,15,45,72.60
2016,11,09,15,46,70.50
2016,11,09,15,47,69.20
2016,11,09,15,48,67.20
2016,11,09,15,49,65.10
2016,11,09,15,50,61.70
2016,11,09,15,51,47.00
2016,11,09,15,52,39.20
2016,11,09,15,53,53.90
2016,11,09,15,54,48.30
2016,11,09,15,55,51.00
2016,11,09,15,56,50.10
2016,11,09,15,57,48.00
2016,11,09,15,58,46.40
2016,11,09,15,59,44.70
2016,11,09,16,00,44.00
2016,11,09,16,01,42.50
2016,11,09,16,02,40.30
2016,11,09,16,03,39.10
2016,11,09,16,04,37.10
2016,11,09,16,05,34.80
2016,11,09,16,06,33.00
2016,11,09,16,07,32.80
2016,11,09,16,08,31.50
2016,11,09,16,09,29.30
2016,11,09,16,10,27.20
2016,11,09,16,11,25.50
2016,11,09,16,12,22.90
2016,11,09,16,13,19.30
2016,11,09,16,14,18.00
2016,11,09,16,15,16.60
2016,11,09,16,16,16.00
2016,11,09,16,17,14.40
2016,11,09,16,18,14.00
2016,11,09,16,19,12.10
2016,11,09,16,20,12.00
2016,11,09,16,21,12.00
2016,11,09,16,22,11.80
2016,11,09,16,23,11.00
2016,11,09,16,24,11.00
2016,11,09,16,25,10.20
2016,11,09,16,26,9.00
2016,11,09,16,27,9.00
2016,11,09,16,28,9.00
2016,11,09,16,29,7.70
2016,11,09,16,30,7.00
2016,11,09,16,31,7.00
2016,11,09,16,32,7.00
2016,11,09,16,33,5.20
2016,11,09,16,34,5.00
2016,11,09,16,35,5.00
2016,11,09,16,36,5.00
2016,11,09,16,37,5.00
2016,11,09,16,38,3.60
2016,11,09,16,39,0.00
2016,11,09,16,40,0.00
2016,11,09,16,41,0.00
2016,11,09,16,42,0.00
2016,11,09,16,43,0.00
2016,11,09,16,44,0.00
2016,11,09,16,45,0.00
2016,11,09,16,46,0.00
2016,11,09,16,47,0.00
2016,11,09,16,48,0.00
2016,11,09,16,49,0.00
2016,11,09,16,50,0.00
2016,11,09,16,51,0.00
2016,11,09,16,52,0.00
2016,11,09,16,53,0.00
2016,11,09,16,54,0.00
2016,11,09,16,55,0.00
2016,11,09,16,56,0.00
2016,11,09,16,57,0.00
2016,11,09,16,58,0.00
2016,11,09,16,59,0.00
2016,11,09,17,00,0.00
2016,11,09,17,01,0.00
2016,11,09,17,02,0.00
2016,11,09,17,03,0.00
2016,11,09,17,04,0.00
2016,11,09,17,05,0.00
2016,11,09,17,06,0.00
2016,11,09,17,07,0.00
2016,11,09,17,08,0.00
2016,11,09,17,09,0.00
2016,11,09,17,10,0.00
2016,11,09,17,11,0.00
2016,11,09,17,12,0.00
2016,11,09,17,13,0.00
2016,11,09,17,14,0.00
2016,11,09,17,15,0.00
2016,11,09,17,16,0.00
2016,11,09,17,17,0.00
2016,11,09,17,18,0.00
2016,11,09,17,19,0.00
2016,11,09,17,20,0.00
2016,11,09,17,21,0.00
2016,11,09,17,22,0.00
2016,11,09,17,23,0.00
2016,11,09,17,24,0.00
2016,11,09,17,25,0.00
2016,11,09,17,26,0.00
2016,11,09,17,27,0.00
2016,11,09,17,28,0.00
2016,11,09,17,29,0.00
2016,11,09,17,30,0.00